Home > Weather > Paradise > Past weeks

Flag for USA Past Weather in Paradise, California, USA — Yesterday and Last 2 Weeks

Now
68 °F

Partly sunny.


Feels Like: 68 °F
Forecast: 51 / 66 °F
Wind: 12 mph from South

Location: Chico Municipal

Current Time: May 24, 2016 at 12:53:30 PM

Latest Report: May 24, 2016 at 11:47 AM


Visibility: 25 mi

Pressure: 29.94 "Hg (28.16 "Hg at 527m altitude)

Humidity: 53%

Dew Point: 50 °F

Location of ParadiseLocation

Past Weather in Paradise — Graph

°F

Paradise Temperature Yesterday

Maximum temperature yesterday: 73 °F (at 3:47 PM)
Minimum temperature yesterday: 54 °F (at 2:55 AM)
Average temperature yesterday: 62 °F

High & Low Weather Summary for the Past Weeks

 TemperatureHumidityPressure
High93 °F (May 18, 2:50 PM)100% (May 10, 5:35 AM)30.10 "Hg (May 10, 5:35 AM)
Low50 °F (May 22, 4:35 AM)12% (May 11, 3:50 PM)29.63 "Hg (May 19, 7:55 PM)
Average68 °F48%29.91 "Hg
* Reported May 9 11:52 AM — May 24 11:47 AM, Paradise, Weather by CustomWeather, © 2016

Note: Actual official high and low records may vary slightly from our data, if they occured in-between our weather recording intervals... More about our weather records

Advertising

Paradise Weather History for the Previous 24 Hours

Scroll right to see more
 ConditionsComfort  
Time TempWeatherWind HumidityBarometerVisibility
11:47 AM
Tue, May 24
68 °FPartly sunny.12 mph53%29.94 "Hg25 mi
10:48 AM64 °FPartly sunny.9 mph60%29.93 "Hg25 mi
9:48 AM63 °FPartly sunny.9 mph68%29.93 "Hg25 mi
8:45 AM61 °FPartly sunny.9 mph72%29.92 "Hg40 mi
7:47 AM59 °FOvercast.12 mph77%29.91 "Hg80 mi
6:50 AM59 °FOvercast.6 mph72%29.89 "Hg80 mi
5:35 AM59 °FPassing clouds.No wind68%29.87 "Hg10 mi
5:15 AM59 °FPassing clouds.5 mph68%29.87 "Hg10 mi
4:55 AM59 °FPassing clouds.6 mph68%29.87 "Hg10 mi
4:35 AM61 °FOvercast.No wind63%29.87 "Hg10 mi
4:15 AM61 °FMostly cloudy.6 mph63%29.87 "Hg10 mi
3:55 AM59 °FMostly cloudy.No wind72%29.87 "Hg10 mi
3:35 AM59 °FOvercast.No wind72%29.87 "Hg10 mi
3:15 AM59 °FOvercast.No wind77%29.86 "Hg10 mi
2:55 AM59 °FOvercast.No wind72%29.86 "Hg10 mi
2:35 AM63 °FOvercast.No wind59%29.86 "Hg10 mi
2:15 AM63 °FOvercast.No wind59%29.86 "Hg10 mi
1:55 AM63 °FOvercast.No wind59%29.86 "Hg10 mi
1:35 AM63 °FPassing clouds.No wind59%29.86 "Hg10 mi
1:15 AM63 °FPassing clouds.No wind56%29.86 "Hg10 mi
12:55 AM63 °FOvercast.No wind56%29.86 "Hg10 mi
12:15 AM63 °FOvercast.No wind56%29.86 "Hg10 mi
11:55 PM
Mon, May 23
63 °FOvercast.No wind56%29.86 "Hg10 mi
11:35 PM63 °FOvercast.No wind56%29.86 "Hg10 mi
11:15 PM63 °FOvercast.No wind56%29.86 "Hg10 mi
10:55 PM63 °FPassing clouds.No wind56%29.87 "Hg10 mi
10:35 PM63 °FClear.5 mph56%29.87 "Hg10 mi
10:15 PM64 °FClear.6 mph52%29.86 "Hg10 mi
9:55 PM64 °FClear.No wind52%29.86 "Hg10 mi
9:35 PM64 °FClear.No wind52%29.86 "Hg10 mi
9:15 PM68 °FSunny.No wind46%29.85 "Hg10 mi
8:55 PM68 °FSunny.No wind43%29.85 "Hg10 mi
8:35 PM68 °FSunny.No wind43%29.85 "Hg10 mi
8:15 PM68 °FSunny.No wind43%29.84 "Hg10 mi
7:55 PM70 °FSunny.6 mph40%29.84 "Hg10 mi
7:35 PM70 °FSunny.5 mph38%29.84 "Hg10 mi
7:15 PM72 °FSunny.7 mph38%29.84 "Hg10 mi
6:55 PM70 °FSunny.6 mph40%29.84 "Hg10 mi
6:15 PM72 °FSunny.8 mph38%29.85 "Hg10 mi
5:55 PM72 °FPassing clouds.12 mph36%29.85 "Hg10 mi
4:47 PM73 °FMild.N/A36%29.86 "HgN/A
3:47 PM73 °FMostly cloudy.12 mph29%29.88 "Hg40 mi
2:50 PM72 °FMore clouds than sun.6 mph33%29.89 "Hg40 mi
1:45 PM70 °FMore clouds than sun.12 mph40%29.91 "Hg40 mi
12:47 PM68 °FOvercast.12 mph46%29.92 "Hg40 mi
Weather by CustomWeather, © 2016

See weather overviewHow to use our weather pages